Location: 3 Angels Observatory
(30.5437°N, 88.5068°W)
Time: 05:10:23
(UTC-05:00)

Oscar 19 - Visible Passes

Search period start: 16 April 2014 00:00
Search period end: 26 April 2014 00:00
Orbit: 775 x 791 km, 98.5° (Epoch: 15 April)

Date Brightness Start Highest point End Pass type
(mag) Time Alt. Az. Time Alt. Az. Time Alt. Az.
16 Apr 13.2 03:34:21 10° NNW 03:34:43 12° NNW 03:34:43 12° NNW visible
17 Apr 13.1 03:02:03 10° N 03:02:56 15° N 03:02:56 15° N visible
18 Apr 13.3 02:30:22 10° NNE 02:31:08 14° NNE 02:31:08 14° NNE visible
19 Apr 13.6 01:59:14 10° NNE 01:59:20 11° NNE 01:59:20 11° NNE visible
19 Apr 13.1 03:39:23 10° NNW 03:39:56 12° NNW 03:39:56 12° NNW visible
20 Apr 13.0 03:06:58 10° N 03:08:08 17° N 03:08:08 17° N visible
21 Apr 13.1 02:35:11 10° NNE 02:36:20 17° NNE 02:36:20 17° NNE visible
22 Apr 13.5 02:03:57 10° NNE 02:04:31 13° NNE 02:04:31 13° NNE visible
22 Apr 13.0 03:44:27 10° NNW 03:45:07 12° NNW 03:45:07 12° NNW visible
23 Apr 12.8 03:11:52 10° N 03:13:18 18° NNW 03:13:18 18° NNW visible
24 Apr 12.9 02:40:01 10° N 02:41:30 20° N 02:41:30 20° N visible
25 Apr 13.3 02:08:41 10° NNE 02:09:42 16° NNE 02:09:42 16° NNE visible
25 Apr 13.0 03:49:34 10° NNW 03:50:17 12° NW 03:50:17 12° NW visible
